Weather History for Eureka Airport, NV

Change the Weather History Date:

Friday, November 2, 2012

  Actual Average Record
Temperature  
Mean Temperature 42 °F -  
Max Temperature 60 °F - - ()
Min Temperature 24 °F - - ()
Degree Days  
Heating Degree Days 23    
Moisture  
Dew Point -    
Average Humidity    
Maximum Humidity    
Minimum Humidity    
Precipitation  
Precipitation 0.00 in - - ()
Sea Level Pressure  
Sea Level Pressure 30.18 in    
Wind  
Wind Speed 3 mph ()    
Max Wind Speed 7 mph    
Max Gust Speed -    
Visibility 9.9 miles    
Events      
T = Trace of Precipitation, MM = Missing Value Source: Averaged Metar Reports

Daily Weather History Graph

Daily Weather History Graph

Search for Another Location

Airport:

Trip Planner

Search our weather history database for the weather conditions in past years. The results will help you decide how hot, cold, wet, or windy it might be!

Date:

Astronomy

Nov. 02, 2012 Rise Set
Actual Time 7:14 AM PDT 5:40 PM PDT
Civil Twilight 6:46 AM PDT 6:08 PM PDT
Nautical Twilight 6:14 AM PDT 6:40 PM PDT
Astronomical Twilight 5:42 AM PDT 7:11 PM PDT
Moon 8:31 PM PDT (11/2) 10:37 AM PDT (11/2)
Length of Visible Light 11h 22m
Length of Day
10h 26m
Waning Gibbous, 86% of the Moon is Illuminated
Nov 2
Waning Gibbous
Nov 6
Last Quarter
Nov 13
New
Nov 20
First Quarter
Nov 28
Full

Hourly Weather History & Observations

Time (PDT) Temp. Windchill Dew Point Humidity Pressure Visibility Wind Dir Wind Speed Gust Speed Precip Events Conditions
12:00 AM 37.4 °F - - N/A% 30.16 in 10.0 mi Calm Calm - N/A   Clear
12:20 AM 35.6 °F - - N/A% 30.16 in 10.0 mi Calm Calm - N/A   Clear
12:40 AM 35.6 °F - - N/A% 30.16 in 10.0 mi Calm Calm - N/A   Clear
1:00 AM 32.0 °F - - N/A% 30.16 in 10.0 mi Calm Calm - N/A   Clear
1:20 AM 32.0 °F 26.4 °F - N/A% 30.16 in 10.0 mi SSW 5.8 mph - N/A   Clear
1:40 AM 32.0 °F 27.5 °F - N/A% 30.17 in 10.0 mi South 4.6 mph - N/A   Clear
2:00 AM 32.0 °F 27.5 °F - N/A% 30.17 in 10.0 mi South 4.6 mph - N/A   Clear
2:20 AM 30.2 °F - - N/A% 30.17 in 10.0 mi Calm Calm - N/A   Clear
2:40 AM 28.4 °F 22.2 °F - N/A% 30.17 in 10.0 mi South 5.8 mph - N/A   Clear
3:00 AM 32.0 °F 26.4 °F - N/A% 30.17 in 10.0 mi South 5.8 mph - N/A   Clear
3:20 AM 28.4 °F - - N/A% 30.17 in 10.0 mi Calm Calm - N/A   Clear
3:40 AM 26.6 °F - - N/A% 30.17 in 10.0 mi Calm Calm - N/A   Clear
4:00 AM 26.6 °F 22.6 °F - N/A% 30.18 in 10.0 mi South 3.5 mph - N/A   Clear
4:20 AM 28.4 °F 22.2 °F - N/A% 30.18 in 10.0 mi SSW 5.8 mph - N/A   Clear
4:40 AM 28.4 °F 23.3 °F - N/A% 30.18 in 10.0 mi South 4.6 mph - N/A   Clear
5:00 AM 26.6 °F 22.6 °F - N/A% 30.18 in 10.0 mi SSE 3.5 mph - N/A   Clear
5:20 AM 28.4 °F 22.2 °F - N/A% 30.18 in 10.0 mi South 5.8 mph - N/A   Clear
5:40 AM 26.6 °F 20.0 °F - N/A% 30.19 in 10.0 mi SSW 5.8 mph - N/A   Clear
6:00 AM 28.4 °F 23.3 °F - N/A% 30.19 in 10.0 mi SSW 4.6 mph - N/A   Clear
6:40 AM 24.8 °F 17.9 °F - N/A% 30.20 in 10.0 mi South 5.8 mph - N/A   Clear
7:00 AM 28.4 °F 21.2 °F - N/A% 30.20 in 10.0 mi SSW 6.9 mph - N/A   Clear
7:20 AM 28.4 °F 24.6 °F - N/A% 30.20 in 10.0 mi South 3.5 mph - N/A   Clear
7:40 AM 24.8 °F 16.9 °F - N/A% 30.20 in 10.0 mi SSW 6.9 mph - N/A   Clear
8:00 AM 28.4 °F 23.3 °F - N/A% 30.20 in 10.0 mi South 4.6 mph - N/A   Clear
8:20 AM 32.0 °F 27.5 °F - N/A% 30.21 in 10.0 mi SSW 4.6 mph - N/A   Clear
8:40 AM 37.4 °F 32.8 °F - N/A% 30.21 in 10.0 mi SW 5.8 mph - N/A   Clear
9:00 AM 39.2 °F - - N/A% 30.22 in 10.0 mi Calm Calm - N/A   Clear
9:20 AM 42.8 °F - - N/A% 30.22 in 10.0 mi Calm Calm - N/A   Clear
9:40 AM 46.4 °F - - N/A% 30.22 in 10.0 mi Calm Calm - N/A   Clear
10:00 AM 46.4 °F - - N/A% 30.22 in 10.0 mi Calm Calm - N/A   Clear
10:20 AM 50.0 °F - - N/A% 30.22 in 10.0 mi Calm Calm - N/A   Clear
10:40 AM 50.0 °F - - N/A% 30.22 in 10.0 mi NW 5.8 mph - N/A   Clear
11:00 AM 51.8 °F - - N/A% 30.22 in 10.0 mi North 5.8 mph - N/A   Clear
11:20 AM 50.0 °F - - N/A% 30.22 in 10.0 mi NNE 6.9 mph - N/A   Clear
11:40 AM 51.8 °F - - N/A% 30.21 in 10.0 mi NE 4.6 mph - N/A   Clear
12:00 PM 53.6 °F - - N/A% 30.20 in 10.0 mi NNE 3.5 mph - N/A   Clear
12:20 PM 53.6 °F - - N/A% 30.19 in 10.0 mi Calm Calm - N/A   Clear
1:00 PM 57.2 °F - - N/A% 30.17 in 10.0 mi NE 3.5 mph - N/A   Clear
1:20 PM 57.2 °F - - N/A% 30.17 in 10.0 mi NE 5.8 mph - N/A   Clear
1:40 PM 59.0 °F - - N/A% 30.16 in 10.0 mi Calm Calm - N/A   Clear
2:00 PM 60.8 °F - - N/A% 30.15 in 10.0 mi NW 3.5 mph - N/A   Clear
2:20 PM 60.8 °F - - N/A% 30.15 in 10.0 mi WNW 3.5 mph - N/A   Clear
2:40 PM 59.0 °F - - N/A% 30.14 in 10.0 mi WNW 3.5 mph - N/A   Clear
3:00 PM 59.0 °F - - N/A% 30.14 in 10.0 mi Calm Calm - N/A   Clear
3:20 PM 59.0 °F - - N/A% 30.14 in 10.0 mi NE 3.5 mph - N/A   Clear
3:40 PM 59.0 °F - - N/A% 30.14 in 10.0 mi NNW 4.6 mph - N/A   Clear
4:00 PM 59.0 °F - - N/A% 30.14 in 10.0 mi Calm Calm - N/A   Clear
4:20 PM 57.2 °F - - N/A% 30.14 in 10.0 mi Calm Calm - N/A   Clear
4:40 PM 59.0 °F - - N/A% 30.14 in 10.0 mi NNE 4.6 mph - N/A   Clear
5:00 PM 57.2 °F - - N/A% 30.14 in 10.0 mi North 4.6 mph - N/A   Clear
5:20 PM 55.4 °F - - N/A% 30.14 in 10.0 mi North 5.8 mph - N/A   Clear
5:40 PM 51.8 °F - - N/A% 30.15 in 10.0 mi Calm Calm - N/A   Clear
6:00 PM 46.4 °F 43.5 °F - N/A% 30.15 in 10.0 mi NW 5.8 mph - N/A   Clear
6:20 PM 44.6 °F - - N/A% 30.16 in 10.0 mi Calm Calm - N/A   Clear
6:40 PM 44.6 °F - - N/A% 30.17 in 10.0 mi Calm Calm - N/A   Clear
7:00 PM 39.2 °F 37.0 °F - N/A% 30.18 in 10.0 mi SE 3.5 mph - N/A   Clear
7:20 PM 37.4 °F - - N/A% 30.18 in 10.0 mi Calm Calm - N/A   Clear
7:40 PM 37.4 °F - - N/A% 30.18 in 10.0 mi Calm Calm - N/A   Clear
8:00 PM 35.6 °F - - N/A% 30.18 in 10.0 mi Calm Calm - N/A   Clear
8:20 PM 35.6 °F - - N/A% 30.19 in 10.0 mi Calm Calm - N/A   Clear
8:40 PM 35.6 °F 29.9 °F - N/A% 30.20 in 10.0 mi South 6.9 mph - N/A   Clear
9:00 PM 35.6 °F - - N/A% 30.20 in 10.0 mi Calm Calm - N/A   Clear
9:20 PM 32.0 °F - - N/A% 30.20 in 10.0 mi Calm Calm - N/A   Clear
9:40 PM 32.0 °F 28.7 °F - N/A% 30.20 in 10.0 mi SSW 3.5 mph - N/A   Clear
10:00 PM 33.8 °F 30.8 °F - N/A% 30.21 in 10.0 mi SSW 3.5 mph - N/A   Clear
10:20 PM 32.0 °F - - N/A% 30.21 in 10.0 mi Calm Calm - N/A   Clear
10:40 PM 32.0 °F 25.6 °F - N/A% 30.22 in 6.0 mi South 6.9 mph - N/A   Clear
11:00 PM 32.0 °F 26.4 °F - N/A% 30.22 in 9.0 mi South 5.8 mph - N/A   Clear
11:20 PM 30.2 °F 26.7 °F - N/A% 30.22 in 10.0 mi SSE 3.5 mph - N/A   Clear
11:40 PM 32.0 °F 28.7 °F - N/A% 30.21 in 9.0 mi SSE 3.5 mph - N/A   Clear